Torna al catalogo

COSMOS 994

AttivoMilitarePO
NORAD 10731·PAYLOAD·🇷🇺 Russia

Lanciato Mar 15, 1978 da Plesetsk Cosmodrome

Loading…

Prossimi Passaggi (prossime 24 ore)

TLE

AggiornatoSource: Space-Track

Epoca: Sep 14, 2026, 09:31 UTC

1 10731U 78028A   26257.39693112  .00000049  00000-0  36381-4 0  9991
2 10731  82.9316 308.8251 0023442  21.7225 349.2178 13.73432871430059

Traccia COSMOS 994 in tempo reale con AllMySat

Download on the App Store